Wind_Speed
4 3 3 3 3 3 4 4 4 4 3 1 6 8 9 9 10 12 15 17 19 19 17 15 13 11 9 7 6 5 4 6 8 8 7 6 6 6 6 5 7 9 10 9 8 8 10 12 12 12 12 11 10 9 9 7 6 7 7 7 7 8 8 7 7 7 6 8 10 10 9 8 9 7 6 6 4 2 2 5 7 6 5 6 8 8 8 7
4 3 3 2 2 2 3 3 4 4 4 4 1 5 8 8 8 9 11 14 17 19 19 18 16 14 12 9 8 6 5 5 6 9 9 8 7 7 7 6 6 7 7 7 5 3 6 10 12 12 12 11 10 10 9 7 5 5 6 6 6 7 7 7 9 8 6 10 11 11 9 8 8 5 3 4 3 0 3 5 8 8 6 4 7 9 8 8
5 4 3 2 1 1 1 2 3 4 4 4 3 1 4 7 8 8 9 11 14 16 18 19 19 17 15 12 10 8 7 5 5 7 10 10 9 8 8 7 7 6 5 3 1 3 9 11 11 13 12 11 10 9 9 8 8 6 5 5 6 7 7 7 10 9 8 11 13 11 10 8 6 4 2 3 2 2 4 4 6 6 7 5 4 8 8 8
6 5 4 2 2 1 1 2 2 3 4 4 4 3 1 4 7 8 7 8 10 13 16 18 20 19 17 15 13 11 9 8 6 6 8 11 12 10 9 8 7 6 4 1 2 8 13 10 10 12 11 10 9 8 8 8 9 7 5 5 7 7 7 7 9 11 11 13 14 13 11 8 6 5 4 4 2 3 6 4 4 4 4 5 2 6 7 7
7 6 5 4 3 2 2 2 2 3 3 4 4 4 3 1 4 7 7 7 7 10 13 16 18 20 19 18 15 13 12 10 9 7 7 10 12 12 11 9 7 6 4 3 8 14 13 10 10 11 10 9 8 7 7 8 9 7 4 5 6 6 6 5 7 10 12 15 15 15 13 11 8 7 7 5 1 4 6 5 5 4 3 4 1 4 5 7
8 8 7 6 5 4 4 3 3 3 3 4 4 4 3 2 1 4 7 7 6 7 10 13 16 18 20 20 18 16 14 11 10 10 7 8 11 14 13 10 8 7 5 6 11 12 10 9 10 10 9 9 8 7 6 7 8 7 4 4 4 5 6 5 6 9 12 16 17 17 16 13 11 9 8 6 1 2 3 4 6 6 4 2 1 3 5 7
9 9 8 8 7 6 6 5 4 3 4 4 4 4 3 2 1 2 5 6 6 5 7 11 14 16 18 20 19 17 16 13 11 11 9 7 9 13 14 12 10 9 8 8 9 8 6 7 8 9 8 7 8 7 6 6 7 5 4 2 2 4 6 7 6 9 13 17 19 19 18 14 13 11 9 7 3 2 2 2 4 6 5 2 2 4 6 7
10 10 10 9 9 8 7 6 5 5 4 4 4 3 3 3 2 2 3 5 6 5 5 8 12 14 15 18 19 17 16 15 13 12 11 9 8 11 14 14 12 11 11 9 9 8 5 4 5 7 6 6 7 6 5 6 6 4 3 1 1 3 5 7 6 7 12 16 18 20 18 14 13 12 9 7 5 2 0 2 2 6 6 1 3 5 6 8
11 11 11 10 10 9 8 8 7 6 5 4 4 3 3 3 2 2 3 4 5 5 4 5 10 13 13 15 16 15 16 16 14 13 12 11 9 9 12 14 13 13 13 11 10 9 7 5 4 5 5 5 6 5 5 5 5 4 3 2 2 3 6 7 6 6 10 14 17 20 20 16 14 13 10 9 5 3 1 2 2 5 6 1 4 6 7 9
12 12 11 10 10 9 9 8 8 7 5 4 4 3 3 3 3 3 3 3 4 5 4 4 7 11 12 13 13 13 15 16 15 14 14 13 11 10 10 13 15 15 15 12 12 11 9 6 4 5 5 5 5 4 5 5 4 3 2 2 2 3 6 8 7 7 9 13 17 20 20 17 16 15 13 10 6 3 3 2 1 4 5 1 5 8 8 9
12 11 11 10 9 8 8 8 8 7 6 5 4 4 4 4 3 3 2 3 3 3 3 3 5 8 9 9 9 11 13 15 15 15 14 13 13 12 11 13 16 17 16 14 14 13 11 7 5 5 4 4 5 4 5 5 3 1 2 2 3 2 4 7 9 9 9 12 17 19 19 18 17 15 12 10 6 5 4 2 1 4 3 2 6 9 8 9
11 11 10 9 8 8 8 7 7 6 5 5 4 4 4 4 4 3 3 3 3 3 3 2 3 5 6 6 6 7 10 14 16 16 15 14 13 13 13 14 17 19 17 17 17 15 12 9 7 5 3 4 3 3 3 3 2 0 1 2 3 2 4 5 7 10 10 12 16 18 18 18 17 13 11 11 8 7 6 4 2 4 2 4 7 10 9 8
11 10 9 9 8 7 7 7 6 6 6 5 6 6 5 5 5 4 4 4 4 4 4 4 4 5 4 4 4 4 6 11 14 15 16 15 14 14 14 14 18 20 19 20 19 16 14 11 9 7 6 5 3 1 2 0 1 1 2 2 3 3 4 4 6 9 11 12 15 16 16 18 17 13 12 12 11 10 8 6 2 4 0 5 8 10 8 7
9 9 8 8 8 7 7 6 6 5 6 6 7 7 7 7 6 6 6 6 6 5 5 4 5 6 5 4 4 3 5 9 11 12 14 16 15 15 16 15 17 20 21 22 21 18 16 14 11 9 8 7 4 3 3 3 2 3 3 3 4 4 4 5 5 8 11 13 15 15 15 16 16 14 13 13 12 10 8 6 2 2 2 5 7 8 7 6
8 8 7 7 7 6 6 5 5 5 5 6 7 7 8 7 7 6 7 7 7 6 6 6 6 7 6 6 6 5 4 6 8 10 13 15 15 16 17 17 18 21 22 22 21 19 17 16 13 11 9 8 7 5 5 6 5 5 5 5 5 6 6 7 6 7 10 12 15 15 15 16 17 16 14 14 12 10 7 5 2 1 3 3 4 6 7 6
7 7 7 7 6 6 5 5 4 3 3 4 4 4 5 6 5 5 5 6 7 7 7 8 8 8 7 6 6 6 5 4 6 8 12 14 16 17 18 18 19 21 22 22 21 19 18 17 15 14 12 10 9 8 8 9 9 8 7 7 7 8 8 8 7 7 9 11 14 17 16 16 18 17 16 16 14 11 9 6 3 1 2 1 2 4 5 5
6 6 6 6 6 6 5 5 4 2 1 1 2 2 3 3 4 4 3 4 6 7 7 8 9 8 6 6 7 7 7 5 5 7 11 13 15 17 18 17 18 20 21 21 21 20 19 17 15 15 14 12 12 11 10 11 11 8 7 7 8 10 10 9 8 8 8 11 13 17 18 14 16 18 17 17 16 14 11 8 5 2 1 0 1 2 4 4
7 6 5 6 6 6 6 5 5 3 2 2 1 1 2 3 4 4 3 4 5 6 5 6 7 6 6 7 7 7 8 6 5 7 11 12 13 15 16 17 18 19 19 20 21 20 19 17 16 16 17 16 17 16 12 6 5 4 6 9 10 11 11 11 10 8 8 10 12 16 18 15 16 18 18 18 18 16 14 9 6 3 1 1 1 2 3 2
8 7 6 6 6 6 6 6 6 5 5 4 3 2 3 3 2 2 3 3 5 5 3 5 6 6 8 9 7 7 8 6 5 7 10 11 11 13 14 16 17 18 18 18 18 19 19 17 17 17 18 20 20 18 13 6 4 6 9 12 13 13 13 12 10 8 7 9 12 15 18 18 18 18 18 19 19 18 15 12 9 6 4 3 1 0 1 2
8 8 7 7 6 7 7 7 6 7 8 7 6 6 7 7 5 5 5 5 4 6 5 5 6 8 10 9 6 6 6 5 6 5 7 10 12 12 13 15 16 16 17 16 14 16 18 18 19 19 18 19 19 17 15 14 15 16 16 16 16 15 14 12 10 8 7 8 10 13 18 20 19 19 19 19 20 19 18 16 12 9 7 6 3 2 1 1
8 8 8 7 7 7 8 8 8 7 8 8 8 8 8 7 6 5 4 3 3 6 7 6 7 9 10 8 6 5 4 5 6 4 4 9 13 13 14 16 16 16 15 15 14 14 16 18 18 17 16 17 17 17 18 18 19 19 18 18 17 17 15 13 11 9 7 8 9 12 18 22 22 22 20 18 20 20 20 18 14 12 10 8 6 5 4 3
9 8 8 8 8 8 8 9 9 9 8 7 7 8 8 7 7 5 3 2 2 6 7 7 8 10 9 7 5 4 3 5 6 5 4 7 11 11 12 14 15 15 13 14 14 13 16 17 14 12 13 13 15 17 18 18 17 18 18 18 18 17 15 14 12 10 8 8 9 10 16 22 23 24 22 19 20 21 21 20 16 14 13 12 10 8 7 5
10 9 9 9 8 8 8 10 10 10 8 6 6 7 7 7 7 7 7 4 2 5 6 6 7 8 8 6 5 5 4 4 5 6 6 6 8 8 10 10 10 11 11 12 11 10 14 11 7 7 7 9 12 15 16 16 16 16 17 18 18 15 12 12 12 10 9 8 8 9 14 20 21 22 26 23 21 21 22 21 19 17 16 15 12 9 9 7
11 10 10 9 9 9 8 10 11 10 9 6 5 6 6 6 7 8 10 6 3 5 6 5 6 7 7 5 6 5 5 6 7 7 6 6 7 8 9 7 5 8 8 9 8 9 10 9 6 6 6 7 9 11 14 16 16 15 16 16 15 12 10 12 12 10 9 8 7 7 10 16 19 21 26 27 23 22 23 22 21 20 20 18 16 12 11 10
12 11 11 10 10 10 8 9 11 11 9 6 4 4 5 6 7 9 11 8 4 6 6 5 6 7 6 5 6 6 6 7 7 7 6 6 6 7 7 5 5 7 6 5 6 9 10 9 5 6 6 7 9 10 13 15 16 16 15 13 11 10 10 11 11 9 8 7 6 7 6 9 17 21 25 28 27 25 24 24 24 23 23 21 18 15 13 12
14 12 11 10 10 10 10 9 10 11 10 7 4 4 4 5 7 9 11 10 5 7 8 7 6 6 6 5 5 7 7 6 6 7 6 5 7 7 6 6 6 6 5 4 6 8 9 6 4 4 5 7 10 12 14 14 16 17 15 11 10 10 10 10 9 7 6 6 5 7 7 4 10 19 25 28 29 28 27 27 26 26 25 23 19 16 15 14
17 14 11 11 10 10 11 10 9 10 10 8 5 5 5 5 6 8 9 8 3 4 7 7 6 5 7 6 7 9 6 6 7 6 6 6 8 9 7 7 7 5 4 5 7 7 6 3 1 1 3 7 9 11 11 11 15 16 12 9 10 9 9 9 7 4 5 5 5 6 10 6 8 15 23 28 29 29 30 30 29 28 27 25 22 18 16 15
19 17 13 12 11 11 11 11 10 10 11 9 6 6 5 5 5 7 7 4 1 4 4 5 6 5 8 8 8 8 5 5 6 5 7 7 7 9 8 5 4 4 4 7 9 6 4 4 2 2 2 5 8 6 5 8 14 15 11 9 9 7 7 7 5 4 5 4 4 5 9 6 7 10 17 26 30 31 32 31 30 30 29 27 25 22 19 17
20 19 16 13 12 12 11 12 12 11 11 9 7 8 6 4 5 6 5 1 3 5 4 5 6 5 8 9 7 8 6 5 5 5 9 9 6 8 8 4 3 5 6 10 11 6 5 5 5 5 3 4 7 7 5 7 11 12 10 10 8 5 7 5 3 4 5 4 5 6 8 7 6 7 12 23 31 30 31 32 30 29 28 28 27 24 21 19
21 21 19 15 12 12 12 13 13 12 11 9 9 9 7 5 5 3 2 2 4 5 5 5 5 5 7 9 7 7 7 7 8 7 8 9 7 7 7 6 5 6 8 11 11 6 6 7 9 8 4 3 3 6 9 8 9 10 10 9 8 7 7 4 3 3 4 4 5 6 8 9 4 5 6 16 24 25 27 30 31 30 29 28 27 26 24 22
21 22 21 18 14 13 12 13 15 13 11 10 10 11 9 7 6 3 1 3 4 4 5 7 7 7 7 8 8 7 8 9 9 9 9 8 8 8 9 8 7 7 9 12 11 8 7 7 9 9 6 4 4 7 10 9 9 10 10 11 10 8 6 3 2 2 2 2 3 5 6 11 8 5 3 6 12 18 24 27 28 30 29 28 28 27 26 24
22 22 22 20 16 14 12 14 15 13 12 11 11 12 12 8 8 9 6 4 3 2 3 6 9 11 10 10 10 8 7 7 8 9 9 8 8 9 9 8 7 7 7 8 9 8 6 5 8 9 8 7 6 9 11 9 10 12 13 13 10 5 2 2 2 1 2 4 4 3 4 10 13 10 7 7 7 12 19 22 25 28 30 29 29 29 28 26
23 23 22 21 18 15 14 14 15 14 13 13 13 15 13 7 7 14 12 6 4 2 4 5 8 12 13 13 13 11 10 9 7 8 8 8 9 10 10 9 9 9 7 6 7 6 4 3 8 10 10 10 9 10 11 8 11 15 16 16 13 5 3 1 2 1 4 5 4 3 4 8 13 10 8 9 9 11 14 17 20 24 29 32 32 31 30 28
22 23 22 21 20 16 15 14 14 15 14 14 16 16 16 12 9 12 12 10 8 6 6 7 10 13 14 14 13 12 12 11 9 10 10 11 12 12 12 12 12 13 11 10 9 5 3 1 6 9 9 10 10 9 6 4 6 14 17 18 16 8 3 2 3 2 2 1 3 5 5 6 8 5 6 8 8 10 12 14 16 18 24 30 33 34 33 32
21 21 21 21 19 16 15 14 14 15 15 16 17 19 21 20 16 12 10 10 11 8 7 9 11 13 14 15 13 11 11 11 10 11 12 13 14 13 12 12 12 12 13 12 6 2 1 2 2 8 8 6 7 6 4 3 6 14 18 18 14 9 4 2 3 4 4 4 4 6 7 8 9 8 10 10 9 9 11 14 16 17 19 25 31 36 36 35
21 19 19 19 17 15 14 15 15 15 17 18 20 24 25 22 16 12 10 10 10 8 7 9 10 11 13 14 13 11 10 12 12 12 14 16 16 15 13 11 10 10 11 10 6 4 3 5 3 5 7 5 4 4 4 3 7 13 19 20 13 6 5 4 1 2 4 2 3 6 9 11 11 9 9 9 9 9 9 12 15 17 19 21 27 33 37 37
20 17 17 17 15 13 13 16 16 17 19 20 22 25 24 21 17 14 11 11 10 6 5 5 6 6 7 7 7 6 7 9 11 13 15 16 14 14 13 12 10 9 11 11 7 4 4 6 5 2 4 5 5 5 4 3 5 11 16 18 13 7 7 7 2 2 2 1 3 7 11 12 9 6 7 8 7 6 6 8 11 14 16 18 22 27 33 37
19 16 15 14 13 13 13 16 17 17 18 21 24 24 22 21 20 17 15 13 11 8 6 5 4 3 3 3 3 4 5 5 6 11 15 15 12 11 13 13 10 9 13 13 9 6 6 5 5 3 3 7 10 9 8 6 5 8 9 10 10 7 7 8 5 1 1 1 2 5 9 11 11 9 9 9 7 6 6 6 7 9 11 12 16 22 28 35
18 14 13 12 12 13 13 15 17 18 19 21 24 23 22 21 20 18 18 16 14 13 10 8 7 5 5 5 5 6 7 7 6 9 13 14 13 12 12 12 11 13 15 14 10 9 9 6 5 7 5 8 12 10 8 8 7 5 5 8 10 8 6 8 7 4 3 2 1 3 4 6 9 9 8 7 7 8 7 7 7 8 9 9 11 15 22 29
16 13 12 11 12 12 12 14 17 18 20 21 23 21 21 21 19 17 16 16 16 15 12 11 10 9 8 8 6 6 7 8 8 8 11 12 12 12 11 12 14 15 15 14 12 9 9 8 7 9 9 7 11 11 8 8 8 5 4 7 9 6 5 6 6 5 4 3 3 2 2 6 7 7 7 7 7 8 8 8 8 8 9 9 9 11 14 20
14 12 11 11 12 13 13 13 15 18 18 18 19 18 18 19 18 16 15 15 16 16 15 14 12 11 10 9 7 5 7 8 7 7 10 12 12 12 13 14 15 15 14 14 14 10 9 9 8 10 9 7 8 9 8 7 6 5 5 5 5 4 3 3 3 5 6 4 4 4 3 7 8 7 7 7 7 8 8 8 8 8 8 8 9 9 11 15
13 12 10 10 12 13 12 11 13 15 13 11 12 13 15 17 17 17 17 17 17 16 17 16 13 12 11 10 9 6 7 8 8 8 9 12 14 14 15 17 15 14 13 14 14 12 10 10 9 9 7 5 5 7 6 5 5 5 5 6 5 5 6 5 4 5 6 6 5 4 3 6 8 8 8 7 7 8 7 6 7 7 7 7 8 10 12 16
12 11 10 10 13 15 12 10 11 11 9 9 10 11 12 14 15 15 14 15 15 15 16 16 14 13 11 10 9 8 8 9 8 8 8 11 15 15 16 18 17 14 14 13 13 13 10 7 8 8 5 5 5 4 5 5 4 6 6 6 7 7 8 8 6 6 7 8 7 4 2 6 8 8 8 8 8 9 8 8 8 8 8 8 8 10 12 16
12 10 11 12 14 16 15 12 12 11 10 11 12 11 11 11 11 11 11 11 12 11 12 15 15 13 12 10 9 9 10 11 9 8 8 9 13 15 16 18 17 15 14 12 11 11 9 6 8 7 4 2 3 3 6 8 8 8 7 7 8 7 8 8 8 8 8 9 9 5 3 7 7 7 8 8 8 9 9 9 9 9 9 9 9 10 12 15
11 9 10 13 14 16 17 16 15 14 13 13 13 11 10 9 8 10 12 10 9 9 9 12 14 14 14 12 9 8 10 11 9 8 8 8 10 14 16 17 16 14 12 11 9 8 7 6 7 6 4 4 4 4 7 10 10 10 9 9 9 8 8 7 7 8 8 9 11 9 8 11 9 7 8 8 8 9 9 10 10 10 10 9 9 10 12 14
9 7 10 13 15 16 18 19 19 17 15 14 13 10 9 8 6 8 11 10 8 6 7 10 13 14 15 14 11 9 9 10 10 9 9 9 10 14 17 17 15 12 10 10 9 6 5 5 4 4 5 7 7 6 6 8 9 9 8 9 9 9 9 8 7 9 9 9 12 13 14 15 13 9 9 10 10 10 9 10 11 11 10 10 9 11 13 14
8 6 9 13 14 15 18 20 20 19 18 16 13 10 9 8 5 6 9 10 9 7 7 9 12 14 15 15 13 10 8 10 12 12 11 10 11 14 17 15 14 12 9 9 10 8 6 5 4 4 6 6 5 4 5 7 6 6 6 6 7 8 9 10 9 10 10 9 10 11 12 14 13 12 12 13 12 11 11 12 12 11 10 11 11 11 12 14
9 7 8 13 15 14 16 20 20 20 20 18 15 13 12 9 5 5 8 10 8 7 8 7 8 11 14 15 14 12 10 10 13 14 15 13 12 14 17 15 14 14 10 9 10 10 8 6 5 5 4 3 4 4 5 4 4 5 6 6 7 8 9 10 11 11 12 12 12 11 12 14 14 14 14 14 14 13 13 13 12 11 11 11 11 10 11 13
9 9 9 12 16 17 16 18 20 20 20 19 17 15 14 13 9 6 6 9 8 8 8 6 5 8 13 15 14 12 12 12 12 13 15 15 14 15 17 17 16 15 12 11 12 12 9 7 7 8 7 6 6 6 4 4 5 6 7 8 9 10 11 11 12 12 13 14 14 13 13 14 14 13 14 13 12 12 13 12 12 12 12 10 8 7 7 9
10 10 10 11 15 19 19 19 19 19 19 20 18 16 16 16 14 10 7 7 8 8 8 7 6 6 10 14 15 14 13 13 13 13 13 13 14 15 17 19 18 17 15 14 14 13 10 8 10 11 10 9 9 7 6 5 5 6 8 10 11 12 13 13 13 13 14 15 14 13 13 13 13 13 13 13 12 11 12 13 13 11 10 8 6 5 5 5
11 11 11 11 13 17 19 20 20 19 18 19 19 18 17 16 15 14 10 7 7 8 8 7 7 6 7 10 13 15 15 14 14 14 12 12 12 13 17 19 18 18 18 17 16 14 11 11 13 13 11 11 10 8 8 6 6 8 9 10 12 14 14 14 14 13 14 15 14 14 14 14 13 13 13 12 12 12 12 13 13 10 6 5 5 5 4 3
12 11 11 12 12 14 17 19 21 20 19 19 20 20 19 17 15 15 14 9 7 7 7 7 6 6 5 6 9 13 16 18 18 16 14 13 12 12 13 15 15 16 18 18 17 14 12 12 13 14 13 13 11 10 9 7 6 7 7 6 8 10 11 12 13 13 13 13 14 13 13 13 12 12 12 10 9 10 11 12 12 9 5 4 4 4 3 2
Wind_Direction
25 30 39 43 39 35 36 41 47 49 54 194 215 214 212 212 213 216 219 222 226 229 232 233 232 227 218 204 190 174 164 177 185 185 179 174 169 159 150 137 118 114 125 135 124 99 82 80 88 94 98 102 100 95 95 101 117 125 135 150 150 144 141 137 160 175 172 173 173 176 187 179 168 171 165 172 202 244 45 52 54 69 88 120 135 150 159 147
22 23 32 40 40 34 34 40 44 47 48 52 131 208 211 210 210 212 215 218 220 223 228 232 234 232 227 217 206 198 181 173 184 185 185 184 177 170 164 157 149 136 126 136 145 128 95 84 84 88 91 93 90 84 79 77 91 125 144 152 154 146 137 139 155 168 169 163 168 181 191 183 169 177 173 171 198 282 53 49 37 47 59 88 130 146 157 151
24 25 34 47 58 55 47 50 50 51 49 50 55 113 201 208 208 209 211 214 217 218 221 226 231 233 231 225 217 211 201 190 187 182 187 192 186 179 174 172 167 157 151 151 144 133 119 98 86 85 84 83 81 76 70 61 62 96 139 158 160 151 143 145 154 165 175 170 171 179 189 191 176 183 197 191 213 14 37 33 11 30 49 44 134 155 162 161
30 28 34 46 73 99 93 73 64 62 56 54 54 59 121 202 206 206 206 207 212 214 216 220 225 229 231 230 223 218 213 205 202 187 186 196 194 186 183 183 175 158 158 140 86 134 128 108 96 90 83 80 76 71 66 56 54 75 112 143 153 158 157 155 158 164 173 176 174 173 183 196 194 203 215 224 217 41 38 43 14 30 46 20 132 173 176 165
33 34 38 46 65 88 104 97 81 76 69 63 57 55 61 131 201 205 203 201 204 210 213 215 218 223 227 230 226 221 217 208 204 198 190 198 197 192 190 189 178 159 160 117 115 131 128 115 108 97 88 84 79 73 62 54 51 61 90 136 147 160 168 162 159 159 169 178 178 175 182 196 208 218 223 238 260 42 23 37 47 48 34 12 97 194 187 161
35 40 45 51 62 77 93 100 95 86 78 72 63 57 55 60 161 199 201 198 197 204 210 212 214 216 221 225 226 223 216 208 204 202 198 199 199 196 194 191 181 162 155 139 131 132 128 120 110 98 91 85 83 78 65 54 51 57 83 132 137 150 167 171 164 160 170 180 182 182 187 196 209 222 229 242 248 58 359 18 45 41 27 25 118 187 174 156
41 47 52 58 66 75 85 92 96 90 82 77 69 62 57 59 87 178 194 197 197 201 208 210 212 211 214 219 223 223 216 210 207 205 202 200 200 198 196 191 183 168 157 154 148 146 146 126 104 97 90 87 92 84 70 60 51 52 68 110 132 155 174 184 181 171 173 181 186 189 193 200 210 223 235 240 215 123 3 350 32 31 19 27 146 167 164 152
50 54 58 64 70 75 81 86 91 92 87 80 74 70 64 65 83 142 173 188 195 202 209 210 209 209 210 213 218 220 216 211 207 206 203 199 200 200 198 192 183 172 164 167 164 159 162 146 106 94 80 84 97 86 74 65 55 49 47 59 191 197 193 198 205 195 181 184 190 193 197 204 216 225 233 234 212 150 12 317 19 24 9 357 156 161 160 145
56 60 63 68 72 75 80 83 88 92 91 87 80 77 76 76 83 114 150 174 188 200 213 210 206 206 207 211 216 215 214 213 208 205 204 201 203 204 200 192 182 174 174 178 174 168 171 175 130 93 78 91 102 94 84 70 62 63 48 9 300 231 222 222 228 218 189 186 191 193 198 205 218 225 225 224 207 162 218 272 358 14 8 321 161 148 147 139
59 63 66 68 72 75 80 83 88 93 94 94 87 87 89 86 91 101 131 156 172 191 206 209 201 202 206 210 213 210 212 216 212 208 208 207 209 210 203 191 181 178 180 180 176 177 184 190 155 111 102 106 110 110 96 80 78 76 62 10 322 240 230 235 238 234 201 193 191 191 199 206 214 224 229 227 204 179 223 236 344 3 11 225 164 144 141 137
58 62 64 67 71 75 81 85 89 95 96 98 95 97 101 99 99 101 119 145 158 171 184 193 191 195 202 206 210 212 212 215 214 211 210 209 210 212 204 188 182 183 184 182 180 184 192 199 177 136 124 122 114 107 102 94 102 93 42 20 338 270 223 226 233 236 216 203 197 193 202 210 213 222 232 237 221 199 224 227 316 351 8 193 160 139 136 132
54 58 61 65 69 74 79 83 90 96 100 104 104 104 109 108 104 101 111 129 142 143 138 138 162 177 184 189 203 214 213 214 216 214 210 209 209 213 208 190 184 186 187 188 189 190 193 200 192 180 181 163 136 104 116 101 99 146 349 354 338 309 242 225 226 229 219 211 206 200 204 213 219 220 220 234 237 212 209 215 268 343 3 182 152 130 127 126
47 51 56 60 65 71 75 80 89 99 104 109 113 112 113 112 108 107 111 121 129 128 122 122 135 144 146 163 188 202 211 216 218 216 213 211 209 211 212 197 187 188 190 195 196 193 197 201 200 206 208 189 172 145 168 79 29 331 301 302 318 314 276 253 235 229 223 219 214 207 208 215 222 219 213 224 233 219 204 201 253 335 276 171 147 128 120 115
37 39 44 51 58 65 72 77 89 104 111 117 123 125 125 125 124 121 118 119 119 122 128 135 140 135 114 108 142 167 206 221 223 218 213 212 209 208 209 199 190 190 194 200 200 198 202 205 209 217 217 211 206 205 234 268 306 313 298 279 285 299 302 289 261 236 229 225 220 218 219 221 219 214 214 218 221 216 203 196 245 325 169 158 137 129 117 108
27 26 28 35 44 53 61 68 83 103 114 126 134 138 139 140 139 133 130 132 132 131 133 139 145 137 110 92 112 134 175 215 222 214 208 209 206 202 202 196 190 193 198 204 203 202 205 208 217 227 227 225 224 228 250 264 274 289 290 285 284 292 304 302 284 255 237 228 225 224 223 222 216 207 206 207 205 202 201 205 234 298 170 147 112 119 108 98
16 15 14 15 22 32 39 48 64 89 112 131 144 151 154 156 151 140 138 143 146 142 134 135 137 133 120 110 114 114 129 180 198 202 204 203 200 197 198 195 191 193 200 206 208 208 208 210 220 233 236 229 228 239 253 263 268 275 282 293 296 296 299 297 293 278 249 232 225 223 220 215 212 206 200 199 200 198 203 213 219 204 190 145 84 102 91 81
2 1 360 358 0 6 11 19 30 42 83 176 170 170 177 181 174 167 161 157 158 150 138 136 136 133 131 131 125 106 101 126 156 184 195 196 195 194 194 194 192 194 199 206 211 212 212 214 220 233 239 230 229 237 247 264 275 281 292 305 309 305 300 295 296 291 263 242 228 224 222 211 204 206 202 197 199 203 206 212 220 220 217 241 43 57 61 68
352 344 342 344 344 345 348 353 359 357 322 301 287 229 240 230 209 206 214 208 183 155 143 152 146 141 139 130 119 104 99 107 128 170 187 191 192 191 190 192 194 196 200 207 212 214 217 218 218 227 237 233 231 233 234 262 302 321 328 323 320 313 304 299 292 289 275 249 231 226 223 208 199 204 204 200 201 205 208 212 226 236 241 252 350 28 37 56
351 338 327 324 329 330 329 333 340 332 325 339 358 344 331 314 269 257 280 254 205 185 197 200 173 165 155 132 114 106 101 96 113 163 187 195 194 192 194 197 200 199 200 208 215 216 219 222 218 220 227 228 232 236 237 253 289 298 310 314 316 313 305 300 289 279 275 250 231 226 220 207 201 202 203 206 204 205 208 211 224 234 237 241 247 28 19 35
349 340 326 312 312 316 313 317 323 323 331 355 11 5 4 354 328 305 309 307 253 220 210 199 177 165 153 135 126 126 116 105 108 141 186 195 197 200 204 205 205 205 202 204 212 214 219 227 222 217 221 227 235 245 252 258 265 275 286 295 303 305 299 296 287 275 272 258 237 225 218 211 204 200 203 207 205 206 208 209 219 229 235 239 238 235 240 348
342 337 329 314 304 301 301 304 309 317 332 355 11 11 8 3 354 336 314 321 275 211 187 175 164 158 152 145 149 144 140 146 134 133 185 191 195 202 209 208 207 206 198 196 203 206 212 223 224 221 227 233 240 250 258 262 265 270 275 282 290 294 292 289 287 281 274 266 250 226 217 215 206 197 198 203 206 211 213 212 217 227 237 242 241 239 230 218
337 331 326 318 306 296 293 294 299 307 320 344 7 11 9 8 13 9 348 336 238 201 180 159 149 154 155 153 157 144 139 154 152 160 181 187 190 198 205 202 200 197 190 193 198 198 210 222 225 228 234 233 233 241 248 254 258 261 266 274 280 285 288 285 286 287 278 266 254 231 219 222 215 200 197 200 206 213 216 216 219 228 239 243 241 238 231 220
334 327 321 315 309 299 288 285 292 299 308 324 347 359 1 358 3 2 347 334 248 204 181 163 152 150 150 150 148 129 119 141 157 159 161 173 176 179 182 177 181 184 185 195 196 203 216 213 191 193 216 222 227 235 238 242 247 254 263 270 274 280 286 284 288 297 288 270 252 235 225 227 223 207 201 201 205 212 216 218 220 226 238 245 246 246 244 237
334 327 318 311 306 302 289 281 284 290 299 310 333 346 345 341 345 347 340 326 232 192 179 184 179 159 159 169 158 135 129 143 149 149 150 163 166 164 161 152 164 174 178 191 203 222 208 174 162 195 212 222 227 232 233 235 241 250 262 268 272 275 287 291 294 304 300 285 262 243 239 233 224 214 208 206 208 212 216 218 218 222 231 239 243 244 246 243
334 328 319 311 302 300 293 278 277 285 294 299 315 326 327 328 326 332 337 325 245 208 199 187 177 173 178 182 166 158 160 152 151 163 159 155 167 170 166 166 173 171 176 196 224 237 205 180 223 254 244 230 221 219 224 234 244 252 259 265 270 267 279 293 294 304 311 308 279 238 245 244 224 217 212 209 210 212 215 218 218 222 228 233 236 238 239 238
331 329 323 312 300 295 291 280 274 279 285 282 284 291 301 316 315 326 335 325 279 221 216 206 198 201 191 185 179 170 170 165 165 180 178 172 186 186 186 194 181 173 192 219 245 241 215 207 256 266 243 223 214 216 223 232 243 253 261 267 273 262 266 284 290 307 320 327 308 231 222 265 237 220 214 210 212 214 217 220 222 225 229 232 234 237 237 235
324 326 325 316 304 292 285 281 275 272 271 268 260 262 280 300 311 327 334 325 297 203 209 214 216 210 185 182 181 169 166 168 165 172 178 186 201 201 205 206 193 192 213 239 251 237 221 230 274 275 236 218 214 219 229 235 237 247 257 261 272 272 267 275 279 307 323 331 328 237 216 260 270 230 216 212 213 216 219 223 226 228 231 233 233 235 237 237
317 318 321 318 308 294 282 277 271 265 263 260 245 238 259 284 305 324 337 340 212 181 190 203 203 190 181 184 184 179 175 171 173 182 182 188 207 206 207 206 200 219 232 245 250 236 221 238 231 222 237 227 224 232 258 252 239 238 240 246 263 270 256 261 270 298 320 323 318 252 217 240 281 246 220 215 216 220 222 224 227 230 233 234 233 233 234 237
313 312 314 315 310 300 286 273 266 262 261 252 229 226 240 265 290 310 323 330 177 180 168 173 185 188 192 198 198 197 199 191 189 190 187 197 207 196 195 192 206 228 235 248 252 232 218 243 246 239 263 259 237 235 243 244 238 228 224 237 242 230 226 233 251 296 321 315 318 296 229 221 279 270 226 217 221 225 228 228 229 231 233 233 233 233 233 234
311 309 307 309 307 300 288 273 263 259 259 244 219 221 230 245 265 297 312 233 184 189 193 187 193 194 198 204 196 183 183 182 189 200 204 213 213 199 202 209 224 239 246 253 254 237 235 256 255 250 261 262 225 215 211 214 228 220 214 218 197 180 198 205 232 290 333 313 329 322 238 218 267 302 243 224 231 238 236 232 231 232 234 233 233 235 234 232
307 305 303 302 300 296 286 270 263 258 254 238 217 216 222 233 242 231 195 229 227 222 215 210 212 208 202 208 199 181 178 177 189 207 212 219 222 212 211 215 225 244 255 255 254 257 266 264 256 254 243 213 191 193 194 202 221 223 223 211 178 163 179 197 263 295 357 301 326 335 239 216 230 271 292 251 245 247 244 241 239 236 236 236 235 236 236 234
303 300 299 297 292 290 281 268 265 258 247 234 216 213 220 226 229 223 222 236 236 238 236 223 219 219 220 220 214 206 204 196 197 208 210 222 229 216 214 215 216 234 254 255 257 270 276 256 239 236 222 208 208 192 182 189 210 220 227 208 176 135 153 228 307 340 254 257 284 310 203 215 242 264 280 269 250 241 240 243 243 240 239 239 238 238 237 236
302 297 295 291 286 282 274 270 266 255 242 229 216 213 215 215 227 230 228 217 196 232 272 253 230 228 229 227 224 222 225 224 218 220 224 229 227 219 222 224 222 232 251 268 281 300 310 238 206 204 204 209 216 201 190 201 213 218 223 205 183 137 79 256 288 320 274 264 258 239 193 234 264 279 278 265 255 242 235 235 236 235 234 235 238 240 240 239
303 300 294 287 282 276 269 266 260 249 237 224 216 210 207 208 221 228 223 218 224 250 270 257 241 235 234 234 233 232 236 239 233 231 232 233 233 228 226 227 228 234 250 272 292 312 341 284 189 180 186 204 213 219 235 271 239 223 221 212 205 198 155 191 218 202 210 173 166 189 197 248 266 284 294 285 272 254 243 235 231 231 230 229 232 237 239 240
304 303 295 288 281 274 264 256 250 242 231 223 216 209 210 216 221 221 216 216 224 241 255 250 245 242 239 239 239 239 246 250 247 240 235 234 238 238 234 235 236 238 246 255 266 252 81 28 174 171 169 190 204 221 261 291 230 215 211 212 220 231 223 206 214 198 171 137 160 196 223 256 267 282 292 292 287 270 254 242 233 231 231 227 227 231 235 238
306 303 295 291 284 271 257 248 241 234 227 221 215 215 220 223 222 219 213 209 212 229 245 241 243 248 246 246 247 249 251 253 255 252 243 238 240 246 247 242 240 243 240 229 220 202 137 67 62 168 185 209 209 208 235 248 219 206 206 214 224 238 241 238 211 171 160 152 204 219 244 268 278 289 292 291 291 282 265 252 240 235 234 230 229 229 231 234
308 303 292 289 283 267 249 238 231 227 224 221 219 224 228 228 225 220 214 209 209 221 241 233 234 241 238 238 240 239 242 249 252 250 245 241 241 242 238 235 240 235 217 208 210 208 151 104 85 119 185 189 168 160 176 203 220 210 212 221 226 235 247 243 217 99 110 225 237 231 252 271 276 280 294 297 292 284 274 260 248 243 240 237 235 233 232 232
308 302 291 284 275 262 245 233 226 221 220 221 224 229 231 230 228 225 220 218 219 229 254 257 236 214 202 210 234 252 266 278 261 240 237 237 235 228 224 228 229 206 194 197 203 205 185 142 129 138 135 148 153 148 140 144 189 215 223 224 225 238 240 223 213 139 140 236 274 246 253 264 262 262 284 293 281 272 267 252 243 246 247 246 242 238 235 232
307 301 292 280 264 253 242 231 225 218 215 221 226 228 230 231 230 229 229 232 238 247 258 256 241 231 223 231 269 290 285 293 283 238 227 229 227 222 222 219 201 187 190 196 198 203 205 193 168 170 159 155 167 169 148 136 152 188 215 212 217 234 224 203 207 200 171 171 244 259 258 255 257 267 283 284 273 268 262 248 239 239 246 256 255 246 238 234
302 299 288 270 253 244 235 228 224 218 216 223 228 228 230 233 232 232 235 239 243 248 251 246 241 243 236 230 256 283 274 281 283 241 220 221 223 223 219 203 189 188 193 199 206 206 205 211 196 177 177 179 183 186 177 160 159 170 195 201 209 225 215 198 206 205 188 171 169 181 258 252 254 272 276 267 266 266 266 267 261 252 252 258 263 257 244 234
297 296 282 258 242 234 226 221 220 218 219 225 230 231 235 240 240 237 238 241 242 243 244 243 242 242 242 239 248 264 262 270 277 248 224 215 219 224 211 194 191 193 193 198 206 205 203 213 203 180 185 195 191 193 196 192 194 200 208 213 215 229 221 196 204 209 203 207 191 173 232 257 258 265 261 258 258 257 265 281 283 273 264 257 254 251 240 229
293 293 279 248 227 221 217 213 215 217 218 223 229 232 238 244 245 243 241 242 244 244 241 239 239 239 243 249 252 252 254 258 260 253 235 217 217 220 207 198 198 199 202 203 199 200 211 218 200 180 184 198 194 204 218 225 227 225 238 247 245 252 240 214 216 221 211 221 229 210 236 268 263 254 252 256 255 252 260 285 299 291 276 263 253 244 234 226
292 290 278 246 217 211 211 205 205 207 202 205 214 221 232 239 242 243 241 239 240 241 237 234 235 238 241 247 252 250 246 246 246 246 242 225 218 214 205 204 204 201 205 207 197 198 207 204 186 174 174 197 205 219 235 240 236 235 247 250 243 245 238 226 229 228 218 225 228 208 233 264 258 248 247 254 253 253 263 282 300 297 283 272 261 249 240 230
291 283 271 251 222 213 215 212 210 211 207 208 213 218 229 240 246 243 233 225 223 223 225 227 228 233 236 237 243 247 243 242 241 240 243 231 214 207 203 204 205 202 203 205 200 203 208 193 182 172 147 178 215 225 229 229 229 230 231 231 233 232 224 228 235 226 225 235 229 210 236 263 265 251 245 252 255 255 267 278 286 289 285 279 270 257 246 237
289 274 258 250 233 219 219 221 223 228 227 224 224 226 232 241 251 245 227 209 205 211 213 216 220 225 228 229 232 236 240 245 240 224 224 217 200 197 197 196 196 198 205 212 211 216 225 211 196 191 175 190 220 237 234 227 221 222 224 225 228 225 218 227 236 226 228 238 230 223 246 264 272 262 250 258 265 263 270 275 276 280 282 276 267 256 247 241
287 266 242 240 234 224 222 225 229 236 238 235 234 236 238 236 235 239 227 205 194 202 204 209 216 220 223 229 234 229 231 239 229 205 196 191 181 182 183 185 190 196 204 210 206 211 226 210 203 229 240 239 243 247 235 221 215 219 229 233 235 235 232 237 241 235 242 252 246 248 258 263 266 263 256 263 273 276 272 268 272 277 278 274 266 256 248 243
287 265 232 225 226 224 225 229 233 238 241 240 239 236 236 233 217 215 219 211 199 191 197 215 223 222 222 226 229 226 224 225 217 201 187 180 178 181 181 183 191 195 195 198 198 199 202 196 197 237 254 256 250 230 209 210 224 245 257 259 258 252 244 246 250 254 262 266 263 268 269 267 268 269 267 270 273 270 261 258 265 271 272 274 274 267 255 245
288 269 234 219 219 219 222 227 232 238 241 244 246 243 241 237 221 202 203 204 206 199 197 210 217 220 225 223 221 223 222 217 214 206 195 189 185 186 188 193 195 192 192 202 203 195 192 196 200 206 211 199 191 193 195 210 256 285 287 284 276 265 261 262 263 266 270 268 270 279 277 274 278 277 275 275 268 260 258 257 261 267 273 279 283 282 267 249
289 272 247 225 222 222 220 222 227 232 238 244 250 252 250 242 236 232 205 194 201 206 201 190 178 205 222 219 216 216 207 201 206 206 203 203 200 192 191 196 199 195 198 211 208 199 201 199 177 168 166 167 179 194 205 231 270 291 291 285 277 271 268 269 266 263 263 265 269 275 275 277 284 283 277 272 264 261 265 265 265 272 281 284 284 288 276 252
291 275 260 239 230 228 226 224 226 228 232 238 244 249 253 249 241 239 236 220 210 207 204 190 170 189 212 211 212 213 202 192 195 198 200 204 205 203 201 201 202 201 204 210 208 203 203 190 170 166 169 177 192 208 220 236 260 280 287 284 282 280 273 268 268 265 263 266 268 269 272 280 288 289 278 268 264 267 268 267 269 276 284 283 277 283 274 247
292 279 266 253 241 235 234 232 231 231 232 235 239 242 248 252 245 234 237 248 231 213 210 202 185 184 194 197 207 216 216 212 207 200 197 199 201 207 212 212 211 210 208 207 207 205 203 194 182 177 183 191 196 210 222 231 249 268 282 287 284 284 281 276 275 274 271 269 266 267 276 286 289 284 275 266 266 271 269 266 270 276 279 272 273 287 272 224
293 284 272 263 252 242 239 238 237 236 236 235 237 240 241 246 247 237 234 242 235 222 228 229 211 204 203 192 197 210 218 221 217 208 203 206 205 203 212 219 223 223 218 211 206 203 204 202 190 184 194 203 203 213 227 234 254 270 277 284 284 285 286 281 280 286 281 268 265 273 285 294 292 282 275 269 267 272 271 269 271 276 271 251 263 291 279 200
Height
3155 3154 3153 3153 3153 3152 3152 3152 3151 3151 3151 3151 3151 3151 3152 3153 3153 3154 3154 3155 3156 3157 3158 3158 3159 3160 3161 3162 3162 3163 3163 3164 3164 3165 3165 3166 3166 3167 3167 3168 3168 3169 3169 3169 3169 3170 3170 3170 3170 3169 3169 3169 3169 3169 3168 3168 3168 3168 3168 3169 3169 3170 3170 3171 3171 3172 3172 3173 3174 3174 3175 3176 3177 3177 3177 3177 3178 3179 3179 3180 3179 3179 3179 3179 3179 3180 3181 3181
3154 3154 3154 3153 3153 3152 3152 3152 3152 3151 3151 3151 3151 3151 3151 3152 3152 3153 3153 3154 3155 3156 3157 3157 3158 3159 3160 3161 3162 3163 3163 3164 3164 3165 3165 3166 3166 3167 3167 3168 3168 3169 3169 3170 3170 3170 3171 3171 3171 3170 3170 3170 3170 3169 3169 3169 3168 3168 3168 3169 3170 3170 3171 3171 3172 3172 3173 3174 3174 3175 3175 3176 3177 3177 3177 3177 3178 3179 3180 3180 3180 3180 3180 3180 3180 3181 3181 3182
3154 3154 3154 3153 3153 3153 3152 3152 3152 3152 3151 3151 3151 3151 3151 3151 3152 3152 3152 3153 3154 3154 3155 3156 3157 3158 3159 3161 3162 3162 3163 3163 3164 3164 3165 3165 3166 3167 3167 3168 3168 3169 3170 3170 3170 3171 3171 3171 3171 3171 3170 3170 3170 3170 3170 3169 3169 3168 3169 3169 3170 3171 3171 3172 3172 3173 3173 3174 3175 3175 3175 3176 3176 3177 3178 3178 3179 3180 3180 3181 3181 3181 3181 3181 3181 3181 3182 3182
3154 3154 3154 3153 3153 3153 3153 3153 3152 3152 3152 3151 3151 3151 3151 3151 3151 3151 3152 3152 3153 3153 3154 3155 3156 3157 3158 3160 3161 3162 3163 3163 3163 3164 3165 3165 3165 3166 3167 3168 3168 3169 3170 3170 3170 3170 3171 3171 3171 3171 3171 3171 3171 3171 3170 3170 3169 3169 3169 3170 3171 3171 3172 3172 3172 3173 3173 3174 3175 3175 3176 3176 3176 3177 3178 3178 3179 3180 3181 3181 3181 3181 3181 3181 3182 3182 3182 3182
3155 3154 3154 3153 3153 3153 3153 3153 3153 3152 3152 3152 3151 3151 3151 3151 3151 3151 3151 3152 3152 3153 3153 3154 3155 3156 3157 3158 3160 3161 3162 3162 3163 3164 3164 3164 3165 3166 3166 3167 3168 3169 3170 3170 3170 3170 3171 3171 3171 3171 3171 3171 3171 3171 3171 3171 3170 3170 3170 3171 3171 3172 3172 3173 3173 3174 3174 3174 3175 3176 3176 3176 3177 3177 3178 3179 3180 3181 3181 3181 3181 3181 3182 3182 3182 3182 3183 3183
3155 3154 3154 3153 3153 3153 3153 3153 3153 3153 3152 3152 3152 3151 3151 3151 3151 3151 3151 3151 3152 3152 3153 3153 3154 3155 3156 3157 3158 3160 3161 3161 3162 3163 3164 3164 3165 3165 3166 3167 3168 3169 3170 3170 3171 3171 3171 3171 3171 3171 3172 3172 3171 3171 3171 3171 3171 3170 3171 3171 3172 3172 3173 3173 3174 3175 3175 3175 3175 3176 3176 3176 3177 3178 3178 3179 3180 3181 3181 3181 3181 3181 3182 3182 3182 3183 3183 3183
3155 3155 3154 3154 3154 3154 3154 3154 3153 3153 3153 3153 3152 3152 3151 3151 3151 3151 3151 3151 3152 3152 3152 3152 3153 3154 3155 3156 3157 3158 3159 3161 3162 3163 3163 3164 3164 3165 3166 3167 3168 3169 3170 3170 3171 3171 3171 3171 3172 3172 3172 3172 3172 3172 3172 3172 3172 3171 3171 3172 3172 3173 3173 3174 3174 3174 3175 3175 3176 3176 3176 3177 3178 3179 3179 3179 3180 3181 3181 3182 3182 3182 3182 3182 3183 3183 3183 3184
3156 3155 3155 3154 3154 3154 3154 3154 3154 3154 3154 3153 3153 3152 3152 3151 3151 3151 3151 3151 3151 3152 3152 3152 3152 3153 3154 3155 3156 3157 3158 3160 3161 3162 3163 3163 3164 3165 3166 3167 3168 3169 3170 3170 3170 3171 3171 3171 3172 3172 3172 3172 3172 3172 3172 3172 3172 3172 3172 3172 3173 3173 3174 3174 3174 3174 3175 3175 3176 3176 3177 3178 3178 3179 3179 3180 3180 3181 3181 3182 3182 3182 3182 3182 3183 3183 3184 3184
3157 3156 3156 3155 3155 3155 3155 3155 3154 3154 3154 3154 3153 3153 3152 3152 3151 3151 3151 3151 3151 3152 3151 3151 3152 3153 3153 3154 3155 3156 3157 3159 3160 3162 3163 3163 3164 3164 3165 3166 3167 3168 3169 3169 3170 3170 3171 3171 3172 3172 3172 3172 3172 3173 3172 3172 3172 3173 3173 3173 3173 3173 3174 3174 3174 3175 3175 3175 3176 3176 3177 3177 3178 3179 3179 3180 3180 3181 3181 3182 3182 3182 3182 3183 3183 3184 3184 3185
3158 3157 3157 3156 3156 3156 3155 3155 3155 3155 3154 3154 3154 3153 3153 3153 3152 3152 3152 3152 3152 3152 3152 3152 3152 3152 3153 3154 3155 3156 3157 3158 3160 3161 3162 3163 3163 3164 3165 3166 3167 3168 3169 3169 3170 3170 3171 3172 3172 3173 3173 3172 3173 3173 3173 3172 3173 3173 3173 3173 3173 3173 3174 3174 3174 3175 3175 3175 3176 3176 3176 3176 3177 3178 3179 3179 3180 3180 3181 3182 3182 3183 3183 3183 3184 3184 3185 3185
3159 3159 3158 3158 3157 3157 3156 3156 3156 3155 3155 3155 3154 3154 3154 3153 3153 3152 3152 3152 3152 3152 3152 3152 3152 3152 3153 3154 3154 3155 3156 3158 3159 3160 3161 3162 3163 3164 3165 3165 3167 3168 3168 3169 3169 3170 3171 3172 3172 3172 3173 3173 3173 3173 3173 3173 3173 3173 3173 3173 3173 3173 3173 3174 3174 3175 3175 3175 3176 3176 3176 3176 3177 3178 3179 3180 3180 3181 3181 3182 3182 3183 3183 3183 3184 3184 3185 3186
3161 3160 3159 3159 3158 3158 3157 3157 3156 3156 3155 3155 3155 3155 3154 3154 3153 3153 3153 3152 3152 3152 3152 3152 3152 3152 3153 3154 3155 3155 3156 3157 3158 3159 3160 3161 3162 3163 3164 3165 3166 3167 3168 3169 3169 3170 3171 3171 3172 3172 3173 3173 3173 3173 3173 3173 3174 3173 3173 3173 3173 3173 3173 3173 3173 3174 3174 3175 3175 3176 3176 3176 3177 3178 3179 3180 3180 3181 3181 3182 3182 3183 3183 3184 3185 3185 3185 3186
3162 3161 3161 3160 3159 3159 3158 3157 3157 3156 3156 3156 3155 3155 3155 3154 3154 3154 3153 3153 3152 3152 3152 3152 3153 3153 3154 3154 3155 3155 3156 3156 3157 3158 3160 3161 3162 3163 3164 3164 3165 3166 3167 3168 3168 3170 3171 3171 3172 3172 3173 3173 3173 3174 3174 3174 3174 3173 3173 3173 3173 3173 3172 3172 3173 3173 3173 3174 3175 3176 3176 3176 3176 3177 3179 3180 3180 3181 3181 3181 3182 3183 3183 3184 3185 3185 3185 3186
3163 3162 3162 3161 3160 3159 3159 3158 3158 3157 3157 3156 3156 3155 3155 3155 3154 3154 3153 3153 3153 3153 3153 3153 3153 3153 3154 3154 3154 3155 3155 3156 3156 3158 3159 3160 3161 3162 3163 3164 3165 3166 3166 3167 3168 3169 3170 3171 3172 3172 3173 3173 3173 3174 3174 3174 3173 3173 3173 3173 3173 3172 3172 3172 3172 3172 3173 3173 3174 3175 3175 3175 3176 3177 3178 3179 3180 3180 3181 3181 3182 3182 3183 3184 3185 3185 3185 3186
3164 3163 3162 3162 3161 3160 3160 3159 3158 3158 3157 3157 3156 3156 3156 3155 3155 3154 3154 3153 3153 3153 3153 3153 3153 3153 3154 3154 3154 3155 3155 3155 3156 3157 3158 3159 3160 3161 3162 3163 3164 3165 3166 3166 3167 3169 3170 3171 3171 3172 3172 3173 3173 3173 3173 3174 3173 3173 3173 3172 3172 3172 3172 3172 3172 3172 3172 3173 3173 3174 3174 3174 3175 3176 3177 3178 3179 3180 3181 3181 3182 3182 3183 3184 3184 3185 3185 3186
3165 3164 3163 3162 3162 3161 3160 3160 3159 3159 3158 3158 3157 3157 3156 3156 3155 3155 3155 3154 3154 3153 3153 3153 3153 3154 3154 3154 3154 3154 3154 3155 3155 3156 3157 3158 3159 3160 3161 3162 3163 3164 3165 3166 3167 3168 3169 3170 3171 3172 3172 3172 3173 3173 3173 3173 3173 3173 3172 3172 3172 3172 3172 3172 3172 3172 3172 3172 3172 3173 3173 3173 3174 3175 3176 3177 3178 3179 3180 3181 3182 3182 3183 3183 3184 3184 3185 3186
3165 3164 3163 3163 3162 3161 3160 3160 3159 3159 3158 3158 3157 3157 3157 3156 3156 3156 3155 3155 3154 3154 3154 3154 3154 3154 3154 3154 3154 3154 3154 3154 3155 3156 3157 3157 3158 3159 3161 3162 3162 3163 3164 3165 3166 3167 3169 3170 3171 3171 3171 3172 3172 3172 3172 3172 3172 3172 3172 3172 3172 3171 3171 3172 3171 3171 3171 3171 3172 3172 3171 3172 3174 3174 3175 3176 3178 3179 3180 3181 3182 3182 3183 3183 3184 3185 3185 3186
3165 3164 3164 3163 3162 3161 3161 3160 3159 3159 3158 3158 3158 3157 3157 3156 3156 3156 3155 3155 3155 3155 3155 3154 3154 3154 3155 3154 3155 3154 3154 3154 3154 3155 3156 3157 3158 3159 3160 3161 3161 3163 3163 3164 3165 3166 3168 3169 3170 3170 3170 3170 3170 3171 3172 3172 3172 3172 3172 3172 3172 3171 3171 3171 3171 3171 3170 3170 3171 3171 3171 3172 3173 3174 3175 3176 3177 3178 3180 3181 3182 3182 3183 3183 3184 3185 3185 3187
3165 3164 3164 3163 3162 3162 3161 3160 3159 3159 3158 3158 3158 3157 3157 3157 3156 3156 3155 3155 3155 3155 3155 3155 3154 3154 3154 3154 3155 3155 3154 3154 3154 3155 3156 3157 3158 3159 3159 3160 3161 3162 3163 3164 3165 3166 3167 3168 3169 3169 3168 3167 3168 3169 3171 3172 3172 3172 3172 3172 3172 3171 3171 3171 3171 3171 3170 3169 3170 3170 3171 3172 3172 3173 3174 3176 3177 3178 3180 3181 3181 3182 3183 3184 3185 3185 3186 3187
3165 3164 3164 3163 3162 3162 3161 3160 3159 3159 3158 3158 3158 3157 3157 3157 3156 3156 3155 3155 3155 3155 3155 3154 3154 3154 3154 3154 3154 3154 3155 3155 3155 3155 3156 3157 3158 3158 3159 3160 3161 3162 3162 3163 3164 3165 3166 3167 3167 3167 3166 3167 3168 3170 3171 3171 3171 3171 3171 3172 3171 3171 3171 3170 3170 3170 3170 3169 3169 3169 3170 3170 3172 3173 3173 3175 3176 3178 3179 3180 3181 3182 3183 3184 3185 3186 3187 3187
3165 3164 3163 3163 3162 3162 3161 3160 3159 3159 3158 3158 3157 3157 3157 3156 3156 3155 3155 3154 3154 3154 3154 3154 3154 3154 3154 3154 3154 3154 3155 3155 3155 3155 3155 3156 3157 3158 3158 3159 3160 3161 3162 3163 3163 3164 3165 3165 3165 3166 3167 3169 3170 3170 3170 3170 3171 3171 3171 3171 3171 3171 3170 3170 3170 3170 3169 3169 3168 3168 3169 3169 3170 3171 3172 3174 3175 3177 3178 3179 3180 3181 3182 3184 3185 3186 3187 3187
3164 3164 3163 3162 3162 3161 3161 3160 3159 3159 3158 3158 3157 3157 3156 3156 3156 3155 3155 3154 3154 3154 3154 3154 3154 3154 3154 3154 3154 3154 3155 3155 3155 3155 3155 3156 3156 3157 3158 3159 3160 3161 3162 3162 3163 3164 3164 3164 3165 3166 3168 3169 3169 3169 3169 3170 3170 3170 3170 3170 3170 3170 3170 3170 3170 3169 3169 3168 3168 3168 3168 3167 3168 3171 3172 3173 3174 3176 3177 3179 3180 3181 3182 3183 3185 3186 3187 3187
3164 3163 3162 3162 3161 3161 3160 3159 3159 3158 3158 3158 3157 3157 3156 3156 3156 3155 3154 3154 3153 3153 3153 3154 3154 3154 3154 3154 3154 3154 3155 3155 3155 3155 3155 3156 3156 3157 3158 3159 3160 3161 3161 3162 3163 3163 3163 3164 3165 3166 3167 3168 3168 3168 3168 3169 3169 3169 3169 3169 3169 3170 3170 3170 3170 3169 3168 3168 3167 3167 3168 3167 3169 3171 3172 3172 3174 3175 3177 3178 3179 3181 3182 3183 3184 3186 3186 3187
3163 3162 3162 3161 3160 3160 3160 3159 3158 3158 3158 3158 3157 3157 3156 3156 3156 3155 3154 3153 3153 3153 3153 3154 3154 3154 3154 3154 3154 3155 3155 3155 3155 3156 3156 3156 3157 3158 3158 3159 3160 3161 3161 3162 3163 3163 3163 3164 3165 3165 3166 3167 3167 3167 3168 3168 3168 3169 3169 3169 3169 3170 3170 3170 3170 3169 3168 3167 3167 3167 3167 3167 3168 3170 3171 3172 3173 3174 3176 3177 3178 3180 3181 3182 3183 3184 3185 3186
3162 3161 3161 3160 3159 3159 3159 3158 3158 3157 3158 3158 3157 3157 3157 3156 3156 3155 3154 3153 3152 3152 3153 3153 3153 3154 3154 3154 3154 3155 3155 3155 3156 3156 3156 3157 3158 3158 3159 3160 3160 3161 3161 3162 3162 3162 3162 3164 3164 3164 3164 3165 3166 3166 3167 3167 3168 3168 3168 3168 3169 3169 3170 3170 3170 3169 3168 3167 3167 3168 3168 3167 3167 3168 3170 3171 3172 3173 3175 3176 3177 3179 3180 3181 3182 3183 3184 3185
3161 3160 3159 3159 3158 3158 3157 3157 3157 3157 3157 3157 3157 3157 3156 3156 3156 3155 3154 3153 3152 3152 3152 3153 3153 3153 3153 3154 3154 3154 3155 3155 3155 3156 3156 3157 3157 3158 3159 3159 3160 3161 3161 3162 3162 3161 3162 3163 3163 3163 3163 3163 3164 3165 3166 3166 3167 3167 3167 3167 3168 3169 3170 3170 3170 3169 3168 3167 3167 3167 3168 3167 3166 3167 3168 3170 3171 3173 3174 3175 3176 3177 3178 3179 3181 3182 3183 3184
3159 3159 3158 3157 3157 3156 3156 3156 3156 3156 3156 3156 3156 3157 3156 3156 3156 3155 3155 3153 3151 3151 3151 3152 3152 3153 3153 3154 3154 3154 3155 3155 3155 3156 3156 3157 3157 3158 3158 3159 3160 3161 3161 3161 3161 3161 3161 3162 3162 3162 3162 3162 3163 3163 3164 3165 3165 3165 3166 3167 3168 3169 3170 3170 3170 3169 3168 3168 3167 3167 3168 3168 3166 3166 3167 3169 3170 3171 3172 3173 3174 3175 3177 3178 3179 3181 3181 3183
3157 3157 3157 3156 3155 3155 3154 3154 3154 3154 3154 3155 3156 3156 3156 3156 3156 3155 3156 3154 3152 3150 3151 3151 3152 3152 3152 3153 3154 3154 3154 3155 3155 3156 3156 3156 3157 3157 3158 3159 3160 3160 3161 3160 3160 3160 3161 3161 3162 3161 3161 3162 3162 3162 3163 3163 3163 3164 3165 3166 3167 3168 3170 3170 3170 3169 3168 3168 3168 3167 3168 3168 3166 3165 3166 3168 3169 3169 3169 3171 3172 3174 3175 3176 3178 3179 3180 3182
3155 3154 3155 3155 3154 3153 3153 3152 3152 3153 3153 3154 3155 3155 3155 3156 3156 3155 3156 3155 3151 3150 3151 3151 3152 3152 3152 3153 3153 3153 3154 3154 3155 3155 3156 3156 3156 3157 3158 3158 3159 3159 3160 3159 3159 3159 3160 3161 3161 3161 3161 3161 3161 3161 3162 3162 3162 3163 3164 3165 3167 3168 3169 3170 3170 3170 3168 3167 3167 3167 3168 3168 3166 3164 3165 3166 3166 3166 3167 3169 3171 3172 3174 3175 3176 3178 3179 3180
3153 3152 3152 3153 3152 3152 3151 3151 3150 3151 3152 3153 3154 3154 3155 3155 3155 3156 3156 3154 3150 3150 3151 3151 3151 3152 3152 3152 3152 3153 3153 3154 3154 3155 3155 3156 3156 3157 3157 3158 3158 3158 3159 3159 3158 3158 3159 3160 3160 3160 3161 3161 3160 3161 3161 3162 3162 3163 3164 3165 3166 3168 3169 3170 3170 3169 3169 3168 3168 3167 3167 3168 3167 3163 3163 3164 3163 3164 3165 3168 3169 3171 3172 3173 3175 3176 3178 3179
3151 3150 3149 3150 3150 3150 3149 3149 3148 3149 3150 3151 3152 3153 3154 3155 3155 3156 3155 3151 3150 3151 3151 3151 3151 3151 3151 3152 3152 3152 3152 3153 3153 3154 3154 3155 3155 3156 3156 3157 3157 3158 3158 3158 3157 3158 3158 3158 3159 3159 3160 3160 3160 3160 3161 3162 3162 3163 3164 3164 3166 3168 3170 3171 3170 3169 3170 3169 3168 3167 3167 3169 3168 3164 3162 3163 3163 3164 3165 3166 3168 3169 3170 3171 3173 3174 3176 3178
3149 3148 3147 3146 3147 3147 3147 3146 3146 3147 3148 3149 3151 3152 3153 3154 3153 3152 3151 3150 3150 3150 3150 3150 3150 3150 3150 3151 3151 3151 3152 3152 3153 3153 3154 3154 3154 3155 3155 3156 3157 3157 3157 3156 3157 3157 3157 3157 3157 3157 3158 3159 3159 3160 3161 3161 3162 3163 3163 3164 3166 3169 3171 3171 3170 3170 3170 3169 3168 3167 3168 3168 3165 3162 3162 3162 3162 3163 3163 3164 3166 3167 3168 3170 3171 3172 3174 3176
3145 3145 3144 3143 3144 3144 3144 3144 3144 3145 3146 3147 3148 3150 3151 3152 3150 3148 3148 3149 3149 3149 3149 3149 3149 3149 3149 3149 3149 3150 3151 3151 3152 3152 3153 3153 3154 3154 3155 3155 3156 3156 3156 3156 3156 3156 3155 3155 3155 3156 3157 3158 3159 3159 3160 3161 3161 3161 3162 3163 3165 3168 3170 3171 3171 3171 3170 3168 3168 3168 3169 3167 3163 3161 3161 3161 3162 3162 3162 3162 3163 3164 3166 3168 3169 3171 3172 3174
3143 3141 3141 3140 3140 3141 3141 3142 3142 3142 3144 3145 3146 3147 3149 3148 3146 3145 3147 3147 3147 3148 3148 3148 3148 3148 3148 3148 3148 3149 3150 3150 3151 3151 3152 3152 3152 3153 3153 3154 3154 3155 3155 3155 3155 3155 3154 3154 3154 3155 3156 3157 3158 3159 3159 3160 3160 3161 3162 3163 3163 3164 3166 3167 3168 3168 3168 3168 3168 3169 3168 3165 3161 3161 3161 3160 3161 3161 3161 3162 3162 3162 3163 3165 3167 3168 3169 3171
3140 3138 3137 3137 3137 3138 3138 3139 3139 3139 3141 3142 3143 3144 3144 3143 3143 3144 3145 3146 3146 3147 3147 3146 3147 3147 3147 3147 3147 3148 3149 3149 3150 3150 3151 3151 3151 3151 3151 3152 3153 3154 3154 3154 3154 3154 3155 3154 3154 3154 3155 3156 3157 3158 3159 3159 3160 3161 3162 3163 3164 3163 3162 3164 3165 3165 3166 3167 3168 3168 3165 3162 3161 3161 3160 3160 3160 3160 3160 3161 3161 3161 3162 3163 3164 3165 3167 3169
3137 3135 3134 3134 3134 3135 3135 3136 3136 3137 3137 3139 3140 3140 3139 3140 3142 3143 3144 3145 3145 3145 3145 3145 3146 3146 3146 3146 3147 3147 3148 3148 3148 3149 3149 3149 3149 3149 3150 3151 3152 3152 3153 3153 3154 3154 3154 3154 3154 3154 3155 3156 3157 3158 3158 3158 3159 3161 3162 3162 3163 3163 3162 3163 3164 3165 3166 3167 3166 3165 3162 3160 3160 3160 3159 3159 3159 3159 3159 3159 3160 3161 3161 3161 3162 3163 3165 3167
3133 3133 3131 3131 3131 3132 3132 3132 3133 3134 3134 3136 3136 3135 3136 3139 3141 3141 3143 3143 3144 3144 3144 3144 3145 3145 3145 3145 3146 3146 3147 3146 3146 3147 3147 3148 3148 3148 3148 3149 3150 3150 3151 3152 3153 3153 3153 3154 3154 3154 3155 3155 3156 3157 3158 3158 3159 3160 3160 3161 3162 3162 3162 3162 3164 3166 3167 3167 3165 3163 3161 3160 3160 3159 3159 3159 3158 3158 3158 3158 3159 3159 3159 3160 3161 3162 3163 3165
3130 3130 3129 3128 3128 3129 3129 3130 3130 3131 3132 3133 3133 3133 3135 3137 3138 3140 3141 3142 3142 3143 3143 3144 3144 3144 3144 3145 3145 3146 3146 3145 3145 3145 3145 3146 3146 3146 3146 3147 3148 3149 3150 3151 3152 3153 3153 3153 3154 3155 3155 3155 3155 3156 3157 3158 3159 3159 3160 3160 3161 3161 3160 3161 3163 3165 3166 3166 3165 3162 3161 3160 3159 3158 3158 3158 3157 3157 3157 3157 3158 3158 3158 3159 3159 3160 3161 3162
3127 3127 3126 3126 3126 3126 3127 3127 3128 3129 3129 3130 3130 3132 3133 3135 3136 3138 3139 3140 3141 3141 3142 3143 3143 3143 3143 3144 3144 3145 3145 3144 3143 3143 3143 3144 3145 3145 3145 3146 3147 3148 3149 3150 3151 3152 3152 3152 3153 3154 3155 3155 3155 3156 3157 3157 3158 3159 3159 3160 3159 3159 3159 3160 3161 3161 3161 3164 3164 3161 3159 3158 3157 3157 3157 3157 3156 3156 3156 3156 3157 3157 3157 3157 3157 3157 3157 3159
3124 3125 3124 3124 3124 3124 3125 3126 3126 3127 3127 3127 3128 3130 3131 3133 3135 3136 3137 3138 3139 3139 3140 3141 3141 3141 3142 3142 3142 3143 3143 3143 3142 3142 3142 3143 3143 3144 3144 3145 3146 3147 3148 3149 3150 3151 3152 3152 3153 3153 3154 3155 3155 3155 3156 3157 3157 3158 3158 3159 3159 3159 3159 3159 3159 3159 3159 3161 3162 3161 3159 3156 3155 3156 3156 3156 3155 3155 3155 3155 3155 3156 3155 3155 3155 3155 3155 3156
3122 3123 3123 3122 3122 3123 3124 3124 3124 3125 3125 3126 3127 3129 3130 3131 3133 3134 3135 3136 3136 3137 3138 3139 3140 3140 3140 3141 3141 3142 3142 3142 3141 3141 3141 3141 3142 3143 3143 3144 3145 3146 3147 3148 3149 3150 3151 3152 3152 3153 3154 3154 3154 3155 3155 3156 3156 3157 3157 3158 3158 3158 3158 3158 3158 3158 3158 3158 3158 3159 3157 3154 3154 3155 3154 3155 3155 3154 3154 3155 3155 3155 3155 3154 3154 3154 3154 3155
3121 3121 3121 3121 3121 3122 3122 3123 3123 3123 3124 3125 3126 3128 3129 3129 3130 3131 3132 3133 3134 3135 3136 3137 3138 3138 3138 3139 3140 3140 3140 3141 3140 3140 3139 3140 3141 3142 3143 3144 3145 3146 3147 3147 3148 3150 3151 3151 3152 3153 3154 3154 3154 3154 3155 3155 3155 3155 3156 3156 3156 3156 3156 3157 3157 3157 3157 3157 3156 3157 3155 3153 3153 3154 3153 3154 3154 3154 3154 3154 3154 3154 3154 3154 3154 3153 3154 3155
3119 3119 3119 3120 3120 3121 3121 3122 3122 3122 3123 3124 3124 3126 3126 3127 3127 3128 3130 3131 3132 3132 3133 3134 3136 3136 3137 3138 3138 3139 3139 3139 3139 3139 3138 3138 3139 3141 3143 3144 3144 3146 3146 3147 3148 3149 3150 3151 3151 3153 3153 3154 3154 3154 3154 3154 3154 3154 3154 3155 3155 3155 3155 3155 3155 3155 3155 3155 3155 3156 3155 3152 3152 3152 3152 3153 3153 3153 3154 3154 3154 3154 3153 3153 3153 3153 3154 3155
3117 3117 3117 3118 3119 3120 3120 3121 3121 3121 3122 3122 3123 3124 3125 3126 3126 3127 3128 3129 3130 3130 3131 3132 3134 3135 3135 3136 3136 3137 3138 3138 3138 3138 3137 3137 3138 3140 3142 3143 3144 3145 3146 3147 3148 3149 3149 3150 3151 3152 3153 3154 3154 3154 3154 3153 3153 3153 3153 3153 3153 3154 3154 3154 3154 3154 3154 3154 3154 3155 3153 3151 3151 3152 3152 3152 3152 3152 3153 3153 3153 3153 3153 3152 3153 3153 3153 3153
3115 3115 3116 3116 3117 3118 3119 3119 3120 3120 3121 3122 3122 3123 3124 3124 3125 3125 3126 3127 3128 3129 3129 3130 3132 3133 3133 3134 3134 3135 3136 3137 3137 3137 3137 3137 3137 3139 3140 3142 3143 3145 3146 3147 3147 3148 3149 3149 3150 3151 3152 3153 3154 3153 3152 3152 3152 3152 3152 3153 3153 3153 3153 3153 3153 3153 3152 3152 3152 3152 3151 3151 3151 3152 3151 3151 3151 3151 3152 3152 3152 3152 3152 3152 3152 3151 3151 3152
3114 3114 3114 3114 3115 3116 3117 3118 3118 3119 3120 3121 3121 3122 3122 3123 3124 3124 3125 3126 3127 3127 3128 3129 3129 3130 3131 3132 3133 3133 3134 3135 3136 3136 3136 3136 3137 3138 3140 3141 3143 3144 3145 3146 3147 3147 3148 3148 3149 3149 3150 3150 3151 3151 3151 3151 3152 3152 3152 3152 3152 3152 3152 3152 3152 3152 3151 3151 3150 3150 3150 3150 3150 3151 3151 3151 3151 3151 3151 3151 3151 3151 3151 3151 3150 3150 3150 3151
3112 3113 3113 3113 3114 3115 3115 3116 3117 3118 3118 3119 3120 3120 3120 3121 3123 3123 3124 3125 3125 3125 3126 3126 3127 3127 3128 3130 3131 3132 3132 3133 3134 3135 3136 3136 3137 3138 3139 3141 3142 3143 3144 3145 3146 3146 3147 3147 3148 3148 3148 3149 3149 3150 3150 3151 3151 3151 3151 3151 3151 3151 3151 3151 3151 3151 3151 3150 3149 3149 3149 3149 3149 3149 3149 3149 3150 3150 3150 3149 3149 3149 3149 3149 3149 3149 3149 3150
3111 3111 3111 3112 3112 3113 3113 3114 3115 3116 3117 3117 3118 3118 3119 3120 3121 3122 3122 3123 3123 3124 3125 3125 3125 3125 3126 3128 3129 3130 3131 3132 3133 3134 3135 3136 3136 3137 3139 3140 3141 3142 3143 3144 3144 3145 3146 3146 3147 3147 3147 3148 3149 3149 3150 3150 3151 3151 3150 3150 3150 3150 3151 3151 3150 3150 3150 3149 3148 3148 3148 3147 3148 3148 3148 3148 3148 3148 3147 3148 3148 3148 3148 3148 3148 3148 3148 3148
3109 3109 3110 3110 3110 3111 3112 3112 3113 3114 3115 3116 3116 3117 3118 3119 3120 3120 3121 3122 3122 3123 3124 3124 3124 3124 3125 3126 3127 3128 3129 3130 3131 3133 3134 3135 3135 3136 3137 3138 3139 3140 3141 3142 3143 3144 3144 3145 3145 3146 3147 3147 3148 3148 3149 3149 3150 3150 3149 3149 3149 3149 3149 3149 3149 3149 3149 3148 3148 3147 3147 3146 3146 3146 3146 3146 3146 3146 3146 3146 3146 3147 3147 3147 3147 3147 3147 3147
3108 3108 3108 3108 3109 3109 3110 3111 3112 3113 3113 3114 3115 3115 3116 3117 3118 3120 3120 3121 3121 3122 3122 3123 3123 3123 3123 3124 3125 3127 3128 3129 3130 3131 3132 3133 3134 3135 3136 3137 3138 3139 3140 3141 3142 3142 3143 3144 3144 3145 3146 3146 3147 3147 3148 3148 3149 3149 3149 3148 3148 3148 3148 3148 3148 3147 3147 3147 3146 3146 3146 3145 3145 3145 3145 3145 3145 3145 3145 3144 3145 3146 3146 3146 3146 3146 3146 3146
3106 3106 3106 3106 3107 3107 3108 3109 3110 3111 3112 3112 3113 3113 3114 3115 3117 3118 3119 3120 3120 3120 3121 3121 3121 3122 3123 3123 3124 3125 3127 3128 3129 3129 3131 3132 3133 3134 3135 3135 3136 3137 3138 3139 3140 3141 3142 3143 3143 3144 3145 3146 3146 3147 3147 3147 3147 3147 3147 3147 3147 3146 3146 3146 3146 3146 3145 3145 3145 3145 3144 3144 3144 3143 3143 3143 3143 3144 3144 3143 3144 3145 3145 3145 3146 3146 3146 3146
3105 3104 3104 3104 3104 3105 3106 3106 3107 3108 3109 3110 3111 3112 3113 3114 3115 3116 3118 3118 3119 3119 3119 3119 3120 3121 3122 3123 3123 3124 3125 3126 3127 3128 3129 3130 3131 3133 3134 3135 3135 3136 3137 3138 3139 3140 3141 3141 3142 3143 3144 3144 3145 3146 3146 3146 3147 3146 3146 3146 3145 3145 3144 3144 3144 3144 3144 3144 3143 3143 3143 3143 3143 3142 3142 3142 3142 3142 3143 3142 3143 3144 3145 3145 3145 3146 3146 3146